Location: D�derode
(51.8092°N, 10.1065°E)
Time: 17:46:42
(UTC+00:00)

Cosmos 1805 Rocket - Visible Passes

Search period start: 21 April 2021 00:00
Search period end: 01 May 2021 00:00
Orbit: 605 x 630 km, 82.5° (Epoch: 21 April)

Date Brightness Start Highest point End Pass type
(mag) Time Alt. Az. Time Alt. Az. Time Alt. Az.
21 Apr 3.8 21:20:21 10° N 21:24:36 49° ENE 21:24:58 48° E visible
21 Apr 5.4 22:58:53 10° NW 23:02:06 21° W 23:02:06 21° W visible
22 Apr 5.7 20:01:05 10° NNE 20:02:59 13° ENE 20:04:50 10° E visible
22 Apr 3.3 21:37:13 10° N 21:41:36 85° ENE 21:41:58 74° SSE visible
22 Apr 6.0 23:16:56 10° NW 23:18:45 12° W 23:19:06 12° W visible
23 Apr 5.2 20:17:06 10° NNE 20:20:17 20° ENE 20:21:50 16° E visible
23 Apr 3.8 21:54:15 10° NNW 21:58:31 56° W 21:58:58 53° WSW visible
24 Apr 4.6 20:33:36 10° N 20:37:29 30° ENE 20:38:51 25° ESE visible
24 Apr 4.7 22:11:26 10° NNW 22:15:21 33° W 22:15:59 31° WSW visible
25 Apr 3.9 20:50:20 10° N 20:54:35 50° ENE 20:55:53 37° SE visible
25 Apr 5.4 22:28:53 10° NW 22:32:05 20° W 22:33:01 19° WSW visible
26 Apr 5.7 19:31:02 10° NNE 19:32:59 13° ENE 19:34:56 10° E visible
26 Apr 3.4 21:07:13 10° N 21:11:35 86° E 21:12:56 44° SSE visible
26 Apr 6.0 22:46:58 10° WNW 22:48:44 12° W 22:50:04 11° W visible
27 Apr 5.2 19:47:04 10° NNE 19:50:17 20° ENE 19:52:51 13° ESE visible
27 Apr 4.0 21:24:14 10° NNW 21:28:30 56° W 21:29:59 36° SSW visible
28 Apr 4.6 20:03:35 10° N 20:07:28 31° ENE 20:09:56 18° ESE visible
28 Apr 4.9 21:41:26 10° NNW 21:45:19 33° W 21:47:04 24° SW visible
29 Apr 3.8 20:20:18 10° N 20:24:34 51° ENE 20:27:01 23° SE visible
29 Apr 5.6 21:58:53 10° NW 22:02:03 20° W 22:04:10 14° WSW visible
30 Apr 3.5 20:37:11 10° N 20:41:33 87° ENE 20:44:08 24° SSE visible
30 Apr 6.1 22:16:59 10° WNW 22:18:42 12° W 22:20:25 10° WSW visible
